Weather History for St. Augustine, FL

Change the Weather History Date:

Friday, January 30, 1998

  Actual Average Record
Temperature  
Mean Temperature 56 °F -  
Max Temperature 66 °F 62 °F 85 °F (1991)
Min Temperature 46 °F 45 °F 30 °F (2007)
Degree Days  
Heating Degree Days 9    
Growing Degree Days 6 (Base 50)    
Moisture  
Dew Point 42 °F    
Average Humidity 67    
Maximum Humidity 87    
Minimum Humidity 40    
Precipitation  
Precipitation 0.00 in - - ()
Sea Level Pressure  
Sea Level Pressure 29.91 in    
Wind  
Wind Speed 6 mph (West)    
Max Wind Speed 12 mph    
Max Gust Speed 17 mph    
Visibility 10 miles    
Events      
Averages and records for this station are not official NWS values.
T = Trace of Precipitation, MM = Missing Value Source: NWS Daily Summary

Daily Weather History Graph

Daily Weather History Graph

Search for Another Location

Airport:

Trip Planner

Search our weather history database for the weather conditions in past years. The results will help you decide how hot, cold, wet, or windy it might be!

Date:

Astronomy

Jan. 30, 1998 Rise Set
Actual Time 7:16 AM EST 6:00 PM EST
Civil Twilight 6:51 AM EST 6:26 PM EST
Nautical Twilight 6:22 AM EST 6:54 PM EST
Astronomical Twilight 5:54 AM EST 7:23 PM EST
Moon 8:58 AM EST (1/30) 8:55 PM EST (1/30)
Length of Visible Light 11h 34m
Length of Day
10h 44m
Waxing Crescent, 8% of the Moon is Illuminated
Jan 30
Waxing Crescent
Feb 3
First Quarter
Feb 11
Full
Feb 19
Last Quarter
Feb 26
New

Hourly Weather History & Observations

Time (EST) Temp. Windchill Dew Point Humidity Pressure Visibility Wind Dir Wind Speed Gust Speed Precip Events Conditions
12:16 AM 50.0 °F - 39.2 °F 66% 29.96 in 10.0 mi WSW 5.8 mph - N/A   Clear
12:36 AM 50.0 °F - 39.2 °F 66% 29.96 in 10.0 mi WSW 4.6 mph - N/A   Clear
12:56 AM 50.0 °F - 39.2 °F 66% 29.96 in 10.0 mi WSW 5.8 mph - N/A   Clear
1:16 AM 50.0 °F - 41.0 °F 71% 29.95 in 10.0 mi West 8.1 mph - N/A   Clear
1:36 AM 50.0 °F - 41.0 °F 71% 29.95 in 10.0 mi West 6.9 mph - N/A   Clear
1:56 AM 50.0 °F - 41.0 °F 71% 29.94 in 10.0 mi West 6.9 mph - N/A   Clear
2:16 AM 50.0 °F - 41.0 °F 71% 29.93 in 10.0 mi WSW 5.8 mph - N/A   Clear
2:36 AM 48.2 °F - 42.8 °F 82% 29.93 in 10.0 mi WSW 5.8 mph - N/A   Clear
2:56 AM 48.2 °F - 42.8 °F 82% 29.93 in 10.0 mi WSW 5.8 mph - N/A   Clear
3:16 AM 48.2 °F - 42.8 °F 82% 29.93 in 10.0 mi WSW 6.9 mph - N/A   Clear
3:36 AM 48.2 °F - 42.8 °F 82% 29.92 in 10.0 mi WSW 5.8 mph - N/A   Clear
3:56 AM 48.2 °F - 42.8 °F 82% 29.92 in 10.0 mi WSW 4.6 mph - N/A   Clear
4:16 AM 46.4 °F 44.3 °F 42.8 °F 87% 29.92 in 10.0 mi SW 4.6 mph - N/A   Clear
4:36 AM 46.4 °F 43.5 °F 42.8 °F 87% 29.92 in 10.0 mi WSW 5.8 mph - N/A   Clear
4:56 AM 46.4 °F 43.5 °F 42.8 °F 87% 29.91 in 10.0 mi WSW 5.8 mph - N/A   Clear
5:16 AM 46.4 °F 44.3 °F 42.8 °F 87% 29.91 in 10.0 mi WSW 4.6 mph - N/A   Clear
5:36 AM 46.4 °F 43.5 °F 42.8 °F 87% 29.91 in 10.0 mi West 5.8 mph - N/A   Clear
5:56 AM 46.4 °F 43.5 °F 42.8 °F 87% 29.91 in 10.0 mi West 5.8 mph - N/A   Clear
6:16 AM 46.4 °F 42.9 °F 42.8 °F 87% 29.92 in 9.0 mi West 6.9 mph - N/A   Clear
6:36 AM 46.4 °F 43.5 °F 42.8 °F 87% 29.92 in 8.0 mi West 5.8 mph - N/A   Clear
6:56 AM 46.4 °F 43.5 °F 42.8 °F 87% 29.92 in 8.0 mi West 5.8 mph - N/A   Clear
7:16 AM 46.4 °F 42.4 °F 42.8 °F 87% 29.93 in 7.0 mi West 8.1 mph - N/A   Clear
7:36 AM 46.4 °F 43.5 °F 42.8 °F 87% 29.93 in 7.0 mi WSW 5.8 mph - N/A   Clear
7:56 AM 46.4 °F 43.5 °F 42.8 °F 87% 29.93 in 8.0 mi WSW 5.8 mph - N/A   Clear
8:16 AM 46.4 °F 43.5 °F 42.8 °F 87% 29.94 in 9.0 mi WSW 5.8 mph - N/A   Clear
8:36 AM 48.2 °F - 44.6 °F 87% 29.94 in 10.0 mi West 8.1 mph - N/A   Clear
8:56 AM 50.0 °F - 44.6 °F 82% 29.94 in 10.0 mi West 8.1 mph - N/A   Clear
9:16 AM 51.8 °F - 44.6 °F 76% 29.94 in 10.0 mi West 5.8 mph - N/A   Clear
9:36 AM 53.6 °F - 44.6 °F 72% 29.94 in 10.0 mi West 6.9 mph - N/A   Clear
9:56 AM 55.4 °F - 44.6 °F 67% 29.94 in 10.0 mi West 8.1 mph - N/A   Clear
10:16 AM 57.2 °F - 44.6 °F 63% 29.94 in 10.0 mi WNW 8.1 mph - N/A   Clear
10:37 AM 60.8 °F - 44.6 °F 55% 29.94 in 10.0 mi WNW 8.1 mph - N/A   Clear
10:56 AM 60.8 °F - 42.8 °F 52% 29.94 in 10.0 mi West 10.4 mph - N/A   Clear
11:16 AM 60.8 °F - 41.0 °F 48% 29.93 in 10.0 mi WNW 9.2 mph - N/A   Clear
11:37 AM 62.6 °F - 39.2 °F 42% 29.93 in 10.0 mi West 10.4 mph - N/A   Clear
11:56 AM 62.6 °F - 41.0 °F 45% 29.92 in 10.0 mi West 8.1 mph - N/A   Clear
12:16 PM 62.6 °F - 42.8 °F 48% 29.91 in 10.0 mi WNW 4.6 mph - N/A   Clear
12:36 PM 64.4 °F - 41.0 °F 42% 29.89 in 10.0 mi NW 9.2 mph 16.1 mph N/A   Clear
12:56 PM 64.4 °F - 39.2 °F 40% 29.88 in 10.0 mi NNW 10.4 mph - N/A   Clear
1:16 PM 64.4 °F - 41.0 °F 42% 29.87 in 10.0 mi West 11.5 mph - N/A   Clear
1:37 PM 64.4 °F - 41.0 °F 42% 29.86 in 10.0 mi West 4.6 mph - N/A   Clear
1:56 PM 66.2 °F - 41.0 °F 40% 29.85 in 10.0 mi West 11.5 mph 16.1 mph N/A   Clear
2:16 PM 66.2 °F - 41.0 °F 40% 29.85 in 10.0 mi WNW 9.2 mph 17.3 mph N/A   Partly Cloudy
2:36 PM 66.2 °F - 42.8 °F 43% 29.84 in 10.0 mi West 10.4 mph - N/A   Partly Cloudy
2:56 PM 64.4 °F - 42.8 °F 45% 29.84 in 10.0 mi NW 6.9 mph - N/A   Partly Cloudy
3:16 PM 66.2 °F - 44.6 °F 46% 29.84 in 10.0 mi WNW 6.9 mph - N/A   Scattered Clouds
5:56 PM 62.6 °F - 42.8 °F 48% 29.85 in 10.0 mi West 3.5 mph - N/A   Partly Cloudy
6:36 PM 60.8 °F - 42.8 °F 52% 29.87 in 10.0 mi WSW 4.6 mph - N/A   Clear
6:56 PM 59.0 °F - 42.8 °F 55% 29.87 in 10.0 mi West 5.8 mph - N/A   Clear
7:16 PM 55.4 °F - 42.8 °F 63% 29.88 in 10.0 mi Calm Calm - N/A   Clear
7:37 PM 55.4 °F - 42.8 °F 63% 29.89 in 10.0 mi West 3.5 mph - N/A   Partly Cloudy
7:56 PM 55.4 °F - 42.8 °F 63% 29.89 in 10.0 mi West 6.9 mph - N/A   Clear
8:16 PM 53.6 °F - 42.8 °F 67% 29.89 in 10.0 mi West 3.5 mph - N/A   Clear
8:36 PM 53.6 °F - 42.8 °F 67% 29.90 in 10.0 mi West 3.5 mph - N/A   Clear
8:56 PM 53.6 °F - 42.8 °F 67% 29.90 in 10.0 mi West 3.5 mph - N/A   Clear
9:17 PM 53.6 °F - 42.8 °F 67% 29.91 in 10.0 mi West 4.6 mph - N/A   Clear
9:37 PM 53.6 °F - 42.8 °F 67% 29.91 in 10.0 mi West 4.6 mph - N/A   Clear
9:56 PM 53.6 °F - 42.8 °F 67% 29.91 in 10.0 mi West 4.6 mph - N/A   Clear
10:16 PM 51.8 °F - 42.8 °F 71% 29.91 in 10.0 mi West 4.6 mph - N/A   Clear
10:36 PM 51.8 °F - 41.0 °F 67% 29.91 in 10.0 mi WNW 5.8 mph - N/A   Clear
10:56 PM 51.8 °F - 39.2 °F 62% 29.91 in 10.0 mi WNW 4.6 mph - N/A   Clear
11:16 PM 51.8 °F - 39.2 °F 62% 29.91 in 10.0 mi WNW 4.6 mph - N/A   Clear
11:36 PM 50.0 °F - 39.2 °F 66% 29.91 in 10.0 mi WNW 4.6 mph - N/A   Clear
11:56 PM 46.4 °F 44.3 °F 39.2 °F 76% 29.91 in 10.0 mi WNW 4.6 mph - N/A   Clear